TimeCST,TemperatureF,Dew PointF,Humidity,Sea Level PressureIn,VisibilityMPH,Wind Direction,Wind SpeedMPH,Gust SpeedMPH,PrecipitationIn,Events,Conditions,WindDirDegrees,DateUTC
12:51 AM,55.9,55.0,97,30.24,6.0,ESE,4.6,-,N/A,,Clear,120,2013-01-28 06:51:00
1:51 AM,54.0,53.1,97,30.23,5.0,ESE,4.6,-,N/A,,Clear,120,2013-01-28 07:51:00
2:51 AM,57.0,55.9,96,30.20,9.0,ESE,9.2,-,N/A,,Clear,120,2013-01-28 08:51:00
3:51 AM,59.0,57.0,93,30.21,8.0,ESE,3.5,-,N/A,,Clear,110,2013-01-28 09:51:00
4:51 AM,57.0,55.9,96,30.21,4.0,East,3.5,-,N/A,,Clear,100,2013-01-28 10:51:00
5:51 AM,57.0,57.0,100,30.22,4.0,East,4.6,-,N/A,,Clear,90,2013-01-28 11:51:00
6:02 AM,55.4,55.4,100,30.23,2.5,East,3.5,-,N/A,,Clear,80,2013-01-28 12:02:00
6:49 AM,57.2,55.4,94,30.24,1.0,ENE,3.5,-,N/A,,Clear,70,2013-01-28 12:49:00
6:51 AM,57.0,57.0,100,30.24,1.0,ENE,3.5,-,N/A,,Clear,70,2013-01-28 12:51:00
7:09 AM,55.4,55.4,100,30.24,0.8,ENE,4.6,-,N/A,,Clear,70,2013-01-28 13:09:00
7:17 AM,55.4,55.4,100,30.24,0.2,ENE,3.5,-,N/A,Fog,Fog,60,2013-01-28 13:17:00
7:24 AM,55.4,55.4,100,30.24,0.2,NE,4.6,-,N/A,Fog,Fog,50,2013-01-28 13:24:00
7:31 AM,53.6,53.6,100,30.25,0.2,ENE,4.6,-,N/A,Fog,Fog,60,2013-01-28 13:31:00
7:51 AM,55.0,55.0,100,30.25,0.2,NE,3.5,-,N/A,Fog,Fog,50,2013-01-28 13:51:00
8:01 AM,55.4,55.4,100,30.26,0.5,Variable,3.5,-,N/A,Fog,Fog,0,2013-01-28 14:01:00
8:41 AM,57.2,57.2,100,30.26,1.2,ENE,4.6,-,N/A,,Overcast,70,2013-01-28 14:41:00
8:51 AM,59.0,57.9,96,30.26,1.2,ENE,4.6,-,N/A,,Overcast,70,2013-01-28 14:51:00
9:08 AM,60.8,59.0,94,30.27,1.5,ENE,4.6,-,N/A,,Overcast,70,2013-01-28 15:08:00
9:15 AM,60.8,60.8,100,30.27,3.0,East,3.5,-,N/A,,Mostly Cloudy,90,2013-01-28 15:15:00
9:23 AM,60.8,60.8,100,30.27,3.0,East,5.8,-,N/A,,Mostly Cloudy,90,2013-01-28 15:23:00
9:51 AM,64.9,64.0,97,30.27,5.0,East,5.8,-,N/A,,Partly Cloudy,80,2013-01-28 15:51:00
10:51 AM,71.1,64.9,81,30.26,9.0,ESE,9.2,-,N/A,,Clear,110,2013-01-28 16:51:00
11:51 AM,73.0,64.9,76,30.25,10.0,East,9.2,-,N/A,,Partly Cloudy,100,2013-01-28 17:51:00
12:51 PM,73.0,64.9,76,30.21,10.0,East,9.2,-,N/A,,Clear,100,2013-01-28 18:51:00
1:51 PM,73.0,66.0,79,30.19,10.0,ESE,11.5,-,N/A,,Clear,110,2013-01-28 19:51:00
2:51 PM,73.0,66.0,79,30.18,9.0,East,8.1,-,N/A,,Clear,100,2013-01-28 20:51:00
3:51 PM,70.0,64.9,84,30.17,8.0,East,6.9,-,N/A,,Clear,100,2013-01-28 21:51:00
4:51 PM,68.0,64.0,87,30.17,7.0,East,8.1,-,N/A,,Clear,100,2013-01-28 22:51:00
5:51 PM,64.0,63.0,96,30.16,4.0,ESE,8.1,-,N/A,,Clear,110,2013-01-28 23:51:00
6:51 PM,63.0,63.0,100,30.17,1.8,ESE,6.9,-,N/A,,Mostly Cloudy,110,2013-01-29 00:51:00
7:08 PM,62.6,62.6,100,30.16,0.5,East,5.8,-,N/A,Fog,Fog,100,2013-01-29 01:08:00
7:12 PM,62.6,62.6,100,30.17,0.2,ESE,5.8,-,N/A,Fog,Fog,110,2013-01-29 01:12:00
7:26 PM,62.6,62.6,100,30.17,0.5,ESE,5.8,-,N/A,Fog,Fog,110,2013-01-29 01:26:00
7:40 PM,62.6,62.6,100,30.17,0.2,ESE,6.9,-,N/A,Fog,Fog,110,2013-01-29 01:40:00
7:51 PM,63.0,63.0,100,30.17,0.2,East,8.1,-,N/A,Fog,Fog,100,2013-01-29 01:51:00
8:16 PM,62.6,62.6,100,30.16,0.2,ESE,8.1,-,N/A,Fog,Fog,110,2013-01-29 02:16:00
8:43 PM,62.6,62.6,100,30.16,0.2,ESE,6.9,-,N/A,Fog,Fog,110,2013-01-29 02:43:00
8:51 PM,63.0,63.0,100,30.16,0.2,ESE,6.9,-,N/A,Fog,Fog,110,2013-01-29 02:51:00
9:02 PM,62.6,62.6,100,30.16,0.5,ESE,5.8,-,N/A,Fog,Fog,110,2013-01-29 03:02:00
9:24 PM,64.4,64.4,100,30.15,0.2,ESE,6.9,-,N/A,Fog,Fog,110,2013-01-29 03:24:00
9:49 PM,63.0,63.0,100,30.15,0.5,ESE,6.9,-,N/A,Fog,Fog,110,2013-01-29 03:49:00
10:32 PM,62.6,62.6,100,30.14,0.5,ESE,5.8,-,N/A,Fog,Fog,120,2013-01-29 04:32:00
10:51 PM,64.0,64.0,100,30.14,1.2,SE,4.6,-,N/A,,Overcast,130,2013-01-29 04:51:00
11:03 PM,64.4,64.4,100,30.14,3.0,SE,5.8,-,N/A,,Overcast,130,2013-01-29 05:03:00
11:51 PM,66.0,64.9,96,30.13,7.0,SE,6.9,-,N/A,,Mostly Cloudy,130,2013-01-29 05:51:00